Time,TemperatureF,DewpointF,PressureIn,WindDirection,WindDirectionDegrees,WindSpeedMPH,WindSpeedGustMPH,Humidity,HourlyPrecipIn,Conditions,Clouds,dailyrainin,SoftwareType,DateUTC
2013-09-26 00:00:00,43.7,43.7,29.77,SSE,166,0.0,0.0,100,0.00,,,0.00,VWS V13.01,2013-09-26 04:00:00,
2013-09-26 00:02:00,43.7,43.7,29.77,SSE,167,0.0,0.0,100,0.00,,,0.00,VWS V13.01,2013-09-26 04:02:00,
2013-09-26 00:04:00,43.7,43.7,29.77,SSE,167,0.0,0.0,100,0.00,,,0.00,VWS V13.01,2013-09-26 04:04:00,
2013-09-26 00:10:00,43.5,43.5,29.77,SSE,166,0.0,0.0,100,0.00,,,0.00,VWS V13.01,2013-09-26 04:10:00,
2013-09-26 00:12:00,43.5,43.5,29.77,SSE,167,0.0,0.0,100,0.00,,,0.00,VWS V13.01,2013-09-26 04:12:00,
2013-09-26 00:18:00,43.0,43.0,29.77,SSE,167,0.0,0.0,100,0.00,,,0.00,VWS V13.01,2013-09-26 04:18:00,
2013-09-26 00:24:00,43.0,43.0,29.77,SSE,167,0.0,0.0,100,0.00,,,0.00,VWS V13.01,2013-09-26 04:24:00,
2013-09-26 00:30:00,43.0,43.0,29.77,SSE,167,0.0,0.0,100,0.00,,,0.00,VWS V13.01,2013-09-26 04:30:00,
2013-09-26 00:32:00,42.8,42.8,29.77,SSE,167,0.0,0.0,100,0.00,,,0.00,VWS V13.01,2013-09-26 04:32:00,
2013-09-26 00:38:00,43.0,43.0,29.77,SSE,166,0.0,0.0,100,0.00,,,0.00,VWS V13.01,2013-09-26 04:38:00,
2013-09-26 00:44:00,43.0,43.0,29.77,SSE,167,0.0,0.0,100,0.00,,,0.00,VWS V13.01,2013-09-26 04:44:00,
2013-09-26 00:50:00,42.8,42.8,29.77,SSE,167,0.0,0.0,100,0.00,,,0.00,VWS V13.01,2013-09-26 04:50:00,
2013-09-26 00:56:00,42.6,42.6,29.77,SSE,167,0.0,0.0,100,0.00,,,0.00,VWS V13.01,2013-09-26 04:56:00,
2013-09-26 01:02:00,43.2,43.2,29.77,SSE,167,0.0,0.0,100,0.00,,,0.00,VWS V13.01,2013-09-26 05:02:00,
2013-09-26 01:08:00,43.3,43.3,29.77,SSE,167,0.0,0.0,100,0.00,,,0.00,VWS V13.01,2013-09-26 05:08:00,
2013-09-26 01:14:00,43.0,43.0,29.77,SSE,166,0.0,0.0,100,0.00,,,0.00,VWS V13.01,2013-09-26 05:14:00,
2013-09-26 01:20:00,43.0,43.0,29.77,SSE,166,0.0,0.0,100,0.00,,,0.00,VWS V13.01,2013-09-26 05:20:00,
2013-09-26 01:26:00,42.4,42.4,29.77,SSE,167,0.0,0.0,100,0.00,,,0.00,VWS V13.01,2013-09-26 05:26:00,
2013-09-26 01:32:00,42.4,42.4,29.77,SSE,167,0.0,0.0,100,0.00,,,0.00,VWS V13.01,2013-09-26 05:32:00,
2013-09-26 01:38:00,42.3,42.3,29.77,SSE,166,0.0,0.0,100,0.00,,,0.00,VWS V13.01,2013-09-26 05:38:00,
2013-09-26 01:44:00,42.3,42.3,29.77,SSE,166,0.0,0.0,100,0.00,,,0.00,VWS V13.01,2013-09-26 05:44:00,
2013-09-26 01:50:00,42.3,42.3,29.77,SSE,167,0.0,0.0,100,0.00,,,0.00,VWS V13.01,2013-09-26 05:50:00,
2013-09-26 01:56:00,42.3,42.3,29.77,SSE,167,0.0,0.0,100,0.00,,,0.00,VWS V13.01,2013-09-26 05:56:00,
2013-09-26 02:02:00,41.9,41.9,29.77,SSE,167,0.0,0.0,100,0.00,,,0.00,VWS V13.01,2013-09-26 06:02:00,
2013-09-26 02:08:00,41.7,41.7,29.77,SSE,166,0.0,0.0,100,0.00,,,0.00,VWS V13.01,2013-09-26 06:08:00,
2013-09-26 02:14:00,41.9,41.9,29.77,SSE,166,0.0,0.0,100,0.00,,,0.00,VWS V13.01,2013-09-26 06:14:00,
2013-09-26 02:20:00,42.1,42.1,29.80,SSE,166,0.0,0.0,100,0.00,,,0.00,VWS V13.01,2013-09-26 06:20:00,
2013-09-26 02:26:00,41.7,41.7,29.80,SSE,167,0.0,0.0,100,0.00,,,0.00,VWS V13.01,2013-09-26 06:26:00,
2013-09-26 02:32:00,41.7,41.7,29.80,SSE,167,0.0,0.0,100,0.00,,,0.00,VWS V13.01,2013-09-26 06:32:00,
2013-09-26 02:38:00,41.2,41.2,29.77,SSE,167,0.0,0.0,100,0.00,,,0.00,VWS V13.01,2013-09-26 06:38:00,
2013-09-26 02:44:00,41.0,41.0,29.77,SSE,167,0.0,0.0,100,0.00,,,0.00,VWS V13.01,2013-09-26 06:44:00,
2013-09-26 02:50:00,41.0,41.0,29.80,SSE,167,0.0,0.0,100,0.00,,,0.00,VWS V13.01,2013-09-26 06:50:00,
2013-09-26 02:56:00,41.0,41.0,29.80,SSE,167,0.0,0.0,100,0.00,,,0.00,VWS V13.01,2013-09-26 06:56:00,
2013-09-26 03:02:00,41.2,41.2,29.80,SSE,167,0.0,0.0,100,0.00,,,0.00,VWS V13.01,2013-09-26 07:02:00,
2013-09-26 03:08:00,41.4,41.4,29.80,SSE,166,0.0,0.0,100,0.00,,,0.00,VWS V13.01,2013-09-26 07:08:00,
2013-09-26 03:14:00,41.0,41.0,29.80,SSE,166,0.0,0.0,100,0.00,,,0.00,VWS V13.01,2013-09-26 07:14:00,
2013-09-26 03:20:00,41.2,41.2,29.80,SSE,166,0.0,0.0,100,0.00,,,0.00,VWS V13.01,2013-09-26 07:20:00,
2013-09-26 03:26:00,41.0,41.0,29.80,SSE,167,0.0,0.0,100,0.00,,,0.00,VWS V13.01,2013-09-26 07:26:00,
2013-09-26 03:32:00,41.4,41.4,29.80,SSE,167,0.0,0.0,100,0.00,,,0.00,VWS V13.01,2013-09-26 07:32:00,
2013-09-26 03:38:00,41.5,41.5,29.80,SSE,167,0.0,0.0,100,0.00,,,0.00,VWS V13.01,2013-09-26 07:38:00,
2013-09-26 03:44:00,41.2,41.2,29.80,SSE,167,0.0,0.0,100,0.00,,,0.00,VWS V13.01,2013-09-26 07:44:00,
2013-09-26 03:50:00,41.2,41.2,29.80,SSE,166,0.0,0.0,100,0.00,,,0.00,VWS V13.01,2013-09-26 07:50:00,
2013-09-26 03:56:00,41.7,41.7,29.80,SSE,167,0.0,0.0,100,0.00,,,0.00,VWS V13.01,2013-09-26 07:56:00,
2013-09-26 04:02:00,41.7,41.7,29.80,SSE,167,0.0,0.0,100,0.00,,,0.00,VWS V13.01,2013-09-26 08:02:00,
2013-09-26 04:08:00,41.7,41.7,29.80,SSE,166,0.0,0.0,100,0.00,,,0.00,VWS V13.01,2013-09-26 08:08:00,
2013-09-26 04:14:00,41.7,41.7,29.80,SSE,166,0.0,0.0,100,0.00,,,0.00,VWS V13.01,2013-09-26 08:14:00,
2013-09-26 04:20:00,41.2,41.2,29.80,SSE,167,0.0,0.0,100,0.00,,,0.00,VWS V13.01,2013-09-26 08:20:00,
2013-09-26 04:26:00,41.2,41.2,29.80,SSE,167,0.0,0.0,100,0.00,,,0.00,VWS V13.01,2013-09-26 08:26:00,
2013-09-26 04:32:00,41.7,41.7,29.80,SSE,167,0.0,0.0,100,0.00,,,0.00,VWS V13.01,2013-09-26 08:32:00,
2013-09-26 04:38:00,42.1,42.1,29.80,SSE,167,0.0,0.0,100,0.00,,,0.00,VWS V13.01,2013-09-26 08:38:00,
2013-09-26 04:44:00,41.7,41.7,29.80,SSE,167,0.0,0.0,100,0.00,,,0.00,VWS V13.01,2013-09-26 08:44:00,
2013-09-26 04:50:00,41.7,41.7,29.80,SSE,167,0.0,0.0,100,0.00,,,0.00,VWS V13.01,2013-09-26 08:50:00,
2013-09-26 04:56:00,41.7,41.7,29.80,SSE,166,0.0,0.0,100,0.00,,,0.00,VWS V13.01,2013-09-26 08:56:00,
2013-09-26 05:02:00,41.5,41.5,29.80,SSE,167,0.0,0.0,100,0.00,,,0.00,VWS V13.01,2013-09-26 09:02:00,
2013-09-26 05:08:00,41.5,41.5,29.80,SSE,166,0.0,0.0,100,0.00,,,0.00,VWS V13.01,2013-09-26 09:08:00,
2013-09-26 05:14:00,41.2,41.2,29.80,SSE,166,0.0,0.0,100,0.00,,,0.00,VWS V13.01,2013-09-26 09:14:00,
2013-09-26 05:20:00,41.2,41.2,29.80,SSE,167,0.0,0.0,100,0.00,,,0.00,VWS V13.01,2013-09-26 09:20:00,
2013-09-26 05:26:00,41.2,41.2,29.80,SSE,167,0.0,0.0,100,0.00,,,0.00,VWS V13.01,2013-09-26 09:26:00,
2013-09-26 05:32:00,41.5,41.5,29.80,SSE,167,0.0,0.0,100,0.00,,,0.00,VWS V13.01,2013-09-26 09:32:00,
2013-09-26 05:38:00,41.5,41.5,29.80,SSE,166,0.0,0.0,100,0.00,,,0.00,VWS V13.01,2013-09-26 09:38:00,
2013-09-26 05:44:00,41.0,41.0,29.80,SSE,166,0.0,0.0,100,0.00,,,0.00,VWS V13.01,2013-09-26 09:44:00,
2013-09-26 05:50:00,40.6,40.6,29.83,SSE,167,0.0,0.0,100,0.00,,,0.00,VWS V13.01,2013-09-26 09:50:00,
2013-09-26 05:56:00,41.0,41.0,29.83,SSE,167,0.0,0.0,100,0.00,,,0.00,VWS V13.01,2013-09-26 09:56:00,
2013-09-26 06:02:00,41.2,41.2,29.83,SSE,166,0.0,0.0,100,0.00,,,0.00,VWS V13.01,2013-09-26 10:02:00,
2013-09-26 06:08:00,41.2,41.2,29.83,SSE,167,0.0,0.0,100,0.00,,,0.00,VWS V13.01,2013-09-26 10:08:00,
2013-09-26 06:14:00,41.7,41.7,29.83,SSE,166,0.0,0.0,100,0.00,,,0.00,VWS V13.01,2013-09-26 10:14:00,
2013-09-26 06:20:00,41.4,41.4,29.83,SSE,166,0.0,0.0,100,0.00,,,0.00,VWS V13.01,2013-09-26 10:20:00,
2013-09-26 06:26:00,41.0,41.0,29.83,SSE,167,0.0,0.0,100,0.00,,,0.00,VWS V13.01,2013-09-26 10:26:00,
2013-09-26 06:32:00,40.6,40.6,29.83,SSE,167,0.0,0.0,100,0.00,,,0.00,VWS V13.01,2013-09-26 10:32:00,
2013-09-26 06:38:00,40.5,40.5,29.83,SSE,166,0.0,0.0,100,0.00,,,0.00,VWS V13.01,2013-09-26 10:38:00,
2013-09-26 06:44:00,40.5,40.5,29.83,SSE,167,0.0,0.0,100,0.00,,,0.00,VWS V13.01,2013-09-26 10:44:00,
2013-09-26 06:50:00,40.5,40.5,29.83,SSE,167,0.0,0.0,100,0.00,,,0.00,VWS V13.01,2013-09-26 10:50:00,
2013-09-26 06:56:00,40.6,40.6,29.83,SSE,166,0.0,0.0,100,0.00,,,0.00,VWS V13.01,2013-09-26 10:56:00,
2013-09-26 07:02:00,40.8,40.8,29.83,SSE,167,0.0,0.0,100,0.00,,,0.00,VWS V13.01,2013-09-26 11:02:00,
2013-09-26 07:08:00,41.0,41.0,29.83,SSE,167,0.0,0.0,100,0.00,,,0.00,VWS V13.01,2013-09-26 11:08:00,
2013-09-26 07:14:00,41.4,41.4,29.83,SSE,167,0.0,0.0,100,0.00,,,0.00,VWS V13.01,2013-09-26 11:14:00,
2013-09-26 07:20:00,41.7,41.7,29.83,SSE,167,0.0,0.0,100,0.00,,,0.00,VWS V13.01,2013-09-26 11:20:00,
2013-09-26 07:26:00,42.3,42.3,29.83,SSE,166,0.0,0.0,100,0.00,,,0.00,VWS V13.01,2013-09-26 11:26:00,
2013-09-26 07:32:00,43.9,43.9,29.83,SSE,166,0.0,0.0,100,0.00,,,0.00,VWS V13.01,2013-09-26 11:32:00,
2013-09-26 07:38:00,46.2,46.2,29.83,SSE,167,0.0,0.0,100,0.00,,,0.00,VWS V13.01,2013-09-26 11:38:00,
2013-09-26 07:44:00,49.6,49.6,29.83,SSE,167,0.0,0.0,100,0.00,,,0.00,VWS V13.01,2013-09-26 11:44:00,
2013-09-26 07:50:00,52.0,52.0,29.83,SSE,166,0.0,0.0,100,0.00,,,0.00,VWS V13.01,2013-09-26 11:50:00,
2013-09-26 07:56:00,53.4,53.4,29.83,SSE,166,0.0,0.0,100,0.00,,,0.00,VWS V13.01,2013-09-26 11:56:00,
2013-09-26 08:02:00,54.5,54.5,29.83,SSE,167,0.0,0.0,100,0.00,,,0.00,VWS V13.01,2013-09-26 12:02:00,
2013-09-26 08:08:00,55.6,55.6,29.83,SSE,166,0.0,0.0,100,0.00,,,0.00,VWS V13.01,2013-09-26 12:08:00,
2013-09-26 08:14:00,55.9,55.9,29.83,SSE,166,0.0,0.0,100,0.00,,,0.00,VWS V13.01,2013-09-26 12:14:00,
2013-09-26 08:20:00,57.0,57.0,29.83,SSE,166,0.0,0.0,100,0.00,,,0.00,VWS V13.01,2013-09-26 12:20:00,
2013-09-26 08:26:00,57.6,57.6,29.83,ENE,64,0.0,0.0,100,0.00,,,0.00,VWS V13.01,2013-09-26 12:26:00,
2013-09-26 08:32:00,59.0,59.0,29.83,ENE,64,0.0,0.0,100,0.00,,,0.00,VWS V13.01,2013-09-26 12:32:00,
2013-09-26 08:38:00,59.5,59.5,29.85,ENE,64,0.0,0.0,100,0.00,,,0.00,VWS V13.01,2013-09-26 12:38:00,
2013-09-26 08:44:00,58.5,58.5,29.85,ENE,64,0.0,0.0,100,0.00,,,0.00,VWS V13.01,2013-09-26 12:44:00,
2013-09-26 08:50:00,57.2,57.2,29.85,NNE,26,4.7,6.3,100,0.00,,,0.00,VWS V13.01,2013-09-26 12:50:00,
2013-09-26 08:56:00,57.4,57.4,29.85,NNE,27,0.0,0.0,100,0.00,,,0.00,VWS V13.01,2013-09-26 12:56:00,
2013-09-26 09:02:00,56.3,56.3,29.85,NNE,29,0.0,0.0,100,0.00,,,0.00,VWS V13.01,2013-09-26 13:02:00,
2013-09-26 09:08:00,55.6,55.6,29.85,NNE,29,0.0,0.0,100,0.00,,,0.00,VWS V13.01,2013-09-26 13:08:00,
2013-09-26 09:14:00,55.8,55.8,29.85,SE,134,0.0,0.0,100,0.00,,,0.00,VWS V13.01,2013-09-26 13:14:00,
2013-09-26 09:20:00,56.1,56.1,29.85,SE,134,0.0,0.0,100,0.00,,,0.00,VWS V13.01,2013-09-26 13:20:00,
2013-09-26 09:26:00,56.1,56.1,29.85,SE,131,0.0,0.0,100,0.00,,,0.00,VWS V13.01,2013-09-26 13:26:00,
2013-09-26 09:32:00,56.5,56.5,29.85,SE,131,0.0,0.0,100,0.00,,,0.00,VWS V13.01,2013-09-26 13:32:00,
2013-09-26 09:38:00,57.6,57.6,29.85,SE,131,0.0,0.0,100,0.00,,,0.00,VWS V13.01,2013-09-26 13:38:00,
2013-09-26 09:44:00,57.9,57.9,29.85,SE,145,0.0,0.0,100,0.00,,,0.00,VWS V13.01,2013-09-26 13:44:00,
2013-09-26 09:50:00,58.3,58.3,29.85,SE,145,0.0,0.0,100,0.00,,,0.00,VWS V13.01,2013-09-26 13:50:00,
2013-09-26 09:56:00,58.8,58.8,29.85,SSE,168,0.0,0.0,100,0.00,,,0.00,VWS V13.01,2013-09-26 13:56:00,
2013-09-26 10:02:00,59.2,59.2,29.85,SSE,153,0.0,0.0,100,0.00,,,0.00,VWS V13.01,2013-09-26 14:02:00,
2013-09-26 10:08:00,59.4,59.4,29.85,SSE,155,0.0,0.0,100,0.00,,,0.00,VWS V13.01,2013-09-26 14:08:00,
2013-09-26 10:14:00,59.7,59.7,29.85,SE,134,0.0,0.0,100,0.00,,,0.00,VWS V13.01,2013-09-26 14:14:00,
2013-09-26 10:20:00,60.6,60.6,29.85,SSE,149,0.0,0.0,100,0.00,,,0.00,VWS V13.01,2013-09-26 14:20:00,
2013-09-26 10:26:00,61.3,60.2,29.85,SSE,149,0.0,0.0,96,0.00,,,0.00,VWS V13.01,2013-09-26 14:26:00,
2013-09-26 10:32:00,62.1,60.9,29.85,SSE,149,0.0,0.0,96,0.00,,,0.00,VWS V13.01,2013-09-26 14:32:00,
2013-09-26 10:38:00,61.2,60.0,29.85,South,186,0.0,0.0,96,0.00,,,0.00,VWS V13.01,2013-09-26 14:38:00,
2013-09-26 10:44:00,61.9,57.0,29.85,South,185,0.0,0.0,84,0.00,,,0.00,VWS V13.01,2013-09-26 14:44:00,
2013-09-26 10:50:00,62.2,57.3,29.85,SSE,150,0.0,0.0,84,0.00,,,0.00,VWS V13.01,2013-09-26 14:50:00,
2013-09-26 10:56:00,62.2,57.3,29.85,SE,136,0.0,0.0,84,0.00,,,0.00,VWS V13.01,2013-09-26 14:56:00,
2013-09-26 11:02:00,63.0,58.1,29.85,SE,136,0.0,0.0,84,0.00,,,0.00,VWS V13.01,2013-09-26 15:02:00,
2013-09-26 11:08:00,63.1,54.0,29.85,SE,136,0.0,0.0,72,0.00,,,0.00,VWS V13.01,2013-09-26 15:08:00,
2013-09-26 11:14:00,63.1,54.0,29.85,SE,136,0.0,0.0,72,0.00,,,0.00,VWS V13.01,2013-09-26 15:14:00,
2013-09-26 11:20:00,63.5,54.3,29.85,SE,136,0.0,0.0,72,0.00,,,0.00,VWS V13.01,2013-09-26 15:20:00,
2013-09-26 11:26:00,62.8,53.6,29.85,South,177,0.0,0.0,72,0.00,,,0.00,VWS V13.01,2013-09-26 15:26:00,
2013-09-26 11:32:00,63.5,54.3,29.85,South,177,0.0,0.0,72,0.00,,,0.00,VWS V13.01,2013-09-26 15:32:00,
2013-09-26 22:50:00,52.2,52.2,29.91,South,181,0.0,0.0,100,0.00,,,0.00,VWS V13.01,2013-09-27 02:50:00,
2013-09-26 22:56:00,52.0,52.0,29.91,South,181,0.0,0.0,100,0.00,,,0.00,VWS V13.01,2013-09-27 02:56:00,
2013-09-26 23:02:00,52.0,52.0,29.91,South,181,0.0,0.0,100,0.00,,,0.00,VWS V13.01,2013-09-27 03:02:00,
2013-09-26 23:08:00,52.0,52.0,29.91,South,181,0.0,0.0,100,0.00,,,0.00,VWS V13.01,2013-09-27 03:08:00,
2013-09-26 23:14:00,52.2,52.2,29.91,South,181,0.0,0.0,100,0.00,,,0.00,VWS V13.01,2013-09-27 03:14:00,
2013-09-26 23:20:00,52.2,52.2,29.91,South,181,0.0,0.0,100,0.00,,,0.00,VWS V13.01,2013-09-27 03:20:00,
2013-09-26 23:26:00,51.8,51.8,29.91,South,181,0.0,0.0,100,0.00,,,0.00,VWS V13.01,2013-09-27 03:26:00,
2013-09-26 23:32:00,51.4,51.4,29.91,South,181,0.0,0.0,100,0.00,,,0.00,VWS V13.01,2013-09-27 03:32:00,
2013-09-26 23:38:00,50.9,50.9,29.91,South,181,0.0,0.0,100,0.00,,,0.00,VWS V13.01,2013-09-27 03:38:00,
2013-09-26 23:44:00,50.4,50.4,29.91,South,181,0.0,0.0,100,0.00,,,0.00,VWS V13.01,2013-09-27 03:44:00,
2013-09-26 23:50:00,50.2,50.2,29.91,South,181,0.0,0.0,100,0.00,,,0.00,VWS V13.01,2013-09-27 03:50:00,
2013-09-26 23:56:00,50.2,50.2,29.91,South,181,0.0,0.0,100,0.00,,,0.00,VWS V13.01,2013-09-27 03:56:00,